User: anonymous   Login
Location: Banios
(43.0451°N, 0.2335°E)
Time: 01:51:39
(UTC+00:00)
Language:

Altair - Orbit

View from above orbital plane
View from above orbital plane
View from above satellite
View from above satellite

Ground track
Ground track

The orbit data is extracted from the following two-line orbital elements,

1 00050U 60009B   21131.16838857 -.00000092  00000-0 -68774-4 0  9993
2 00050  47.2297 184.1523 0114491 222.5412 136.6462 12.20117162710234
Epoch (UTC): 11 May 2021 04:02:28
Eccentricity: 0.0114491
inclination: 47.2297°
perigee height: 1501 km
apogee height: 1683 km
right ascension of ascending node: 184.1523°
argument of perigee: 222.5412°
revolutions per day: 12.20117162
mean anomaly at epoch: 136.6462°
orbit number at epoch: 71023

The dashed part of the orbit path shows where the satellite is in the earth's shadow,  

DLR